Regional Weather Roundup
Issued by NWS

Home | Current Version | Previous Version | Graphics & Text | Print | Product List | Glossary On
Versions: 1 2 3 4 5 6 7 8 9 10 11 12 13 14 15 16 17 18 19 20 21 22 23 24 25 26 27 28 29 30 31 32 33 34 35 36 37 38 39 40 41 42 43 44 45 46 47 48 49 50
000
ASUS45 KSLC 020410
RWRUT

UTAH REGIONAL WEATHER ROUNDUP
NATIONAL WEATHER SERVICE SALT LAKE CITY UT
1000 PM MDT FRI AUG 01 2014

UTZ001>011-023>025-020500-

NORTHERN UTAH

CITY           SKY/WX    TMP DP  RH WIND       PRES   REMARKS
HILL AFB       CLEAR     77  49  37 E5        30.14R
LOGAN          CLEAR     73  51  46 CALM      30.11R
OGDEN          CLEAR     76  48  37 S5        30.11R
PROVO AIRPORT  CLEAR     73  54  49 S8        30.13R
SALT LAKE CITY PTCLDY    76  49  38 W3        30.09R
VERNAL         PTCLDY    71  46  40 W5        30.15R
WENDOVER       PTCLDY    79  43  27 CALM      30.10R
HEBER CITY     PTCLDY    64  52  63 CALM      30.22R
WEST JORDAN    CLEAR     77  54  44 W6        30.13R

$$

UTZ012>022-026-027-020500-

SOUTHERN UTAH

CITY           SKY/WX    TMP DP  RH WIND       PRES   REMARKS
BRYCE CANYON   MOCLDY    59  47  64 CALM      30.35R
CEDAR CITY     MOCLDY    71  44  37 CALM      30.17R
MILFORD        CLEAR     76  38  25 CALM      30.11R
MOAB/CYNLANDS  CLEAR     78  50  37 CALM      30.07R
PRICE          CLEAR     71  40  32 N6        30.21R
ST GEORGE      CLEAR     88  70  55 SE5       29.95R HX  92
KANAB            N/A     72  52  49 CALM      30.16R

$$

REGIONAL REPORTS     COLORADO/ARIZONA

CITY           SKY/WX    TMP DP  RH WIND       PRES   REMARKS
CRAIG, CO      PTCLDY    56  47  71 E6        30.26R
GRAND JUNCTION CLEAR     69  52  54 E8        30.15R
RIFLE          CLEAR     65  47  52 SE10      30.23R
MONTROSE       PTCLDY    66  51  58 SE5       30.25R
CORTEZ         CLEAR     68  48  48 E5        30.21R
PAGE, AZ       CLOUDY    86  43  22 CALM      30.06R
GRAND CANYON   PTCLDY    63  50  62 S5        30.29R
KINGMAN        PTCLDY    85  49  28 E13       30.04R
FLAGSTAFF      CLOUDY    56  52  86 CALM      30.31R

$$

REGIONAL REPORTS    NEVADA/IDAHO/WYOMING

CITY           SKY/WX    TMP DP  RH WIND       PRES   REMARKS
LAS VEGAS, NV  PTCLDY    99  51  19 S13       29.83R HX  96
ELY            CLOUDY    76  35  22 W10       30.23R
ELKO           CLOUDY    75  37  25 W3        30.13R
POCATELLO, ID  CLEAR     71  46  40 NE9       30.15R
BURLEY         PTCLDY    74  48  39 E6        30.09R
EVANSTON, WY   PTCLDY    70  32  24 NE5       30.32R
ROCK SPRINGS   MOCLDY    70  33  25 E10       30.30R

$$



USA.gov is the U.S. government's official web portal to all federal, state and local government web resources and services.